Time,TemperatureF,DewpointF,PressureIn,WindDirection,WindDirectionDegrees,WindSpeedMPH,WindSpeedGustMPH,Humidity,HourlyPrecipIn,Conditions,Clouds,dailyrainin,SoftwareType,DateUTC
2013-06-01 00:01:00,44.0,44.0,-100.00,NNW,340,19.0,25.0,100,-99.99,,,0.00,,2013-06-01 06:01:00,
2013-06-01 00:12:00,45.0,43.0,-100.00,NW,320,26.0,36.0,90,-99.99,,,0.00,,2013-06-01 06:12:00,
2013-06-01 00:22:00,45.0,43.0,-100.00,NW,320,26.0,36.0,90,-99.99,,,0.00,,2013-06-01 06:22:00,
2013-06-01 00:32:00,45.0,43.0,-100.00,NW,320,26.0,36.0,90,-99.99,,,0.00,,2013-06-01 06:32:00,
2013-06-01 00:42:00,45.0,43.0,-100.00,NW,320,26.0,36.0,90,-99.99,,,0.00,,2013-06-01 06:42:00,
2013-06-01 00:52:00,45.0,42.0,-100.00,NW,325,26.0,31.0,88,-99.99,,,0.00,,2013-06-01 06:52:00,
2013-06-01 01:01:00,45.0,42.0,-100.00,NW,325,26.0,31.0,88,-99.99,,,0.00,,2013-06-01 07:01:00,
2013-06-01 01:11:00,46.0,42.0,-100.00,NNW,335,24.0,32.0,88,-99.99,,,0.00,,2013-06-01 07:11:00,
2013-06-01 01:21:00,46.0,42.0,-100.00,NNW,335,24.0,32.0,88,-99.99,,,0.00,,2013-06-01 07:21:00,
2013-06-01 01:31:00,46.0,42.0,-100.00,NNW,335,24.0,32.0,88,-99.99,,,0.00,,2013-06-01 07:31:00,
2013-06-01 01:42:00,46.0,42.0,-100.00,NNW,335,24.0,32.0,88,-99.99,,,0.00,,2013-06-01 07:42:00,
2013-06-01 01:52:00,46.0,42.0,-100.00,NW,315,21.0,29.0,85,-99.99,,,0.00,,2013-06-01 07:52:00,
2013-06-01 02:02:00,46.0,42.0,-100.00,NW,315,21.0,29.0,85,-99.99,,,0.00,,2013-06-01 08:02:00,
2013-06-01 02:11:00,46.0,41.0,-100.00,NW,325,22.0,29.0,82,-99.99,,,0.00,,2013-06-01 08:11:00,
2013-06-01 02:21:00,46.0,41.0,-100.00,NW,325,22.0,29.0,82,-99.99,,,0.00,,2013-06-01 08:21:00,
2013-06-01 02:32:00,46.0,41.0,-100.00,NW,325,22.0,29.0,82,-99.99,,,0.00,,2013-06-01 08:32:00,
2013-06-01 02:42:00,46.0,41.0,-100.00,NW,325,22.0,29.0,82,-99.99,,,0.00,,2013-06-01 08:42:00,
2013-06-01 02:52:00,46.0,40.0,-100.00,NNW,330,17.0,24.0,81,-99.99,,,0.00,,2013-06-01 08:52:00,
2013-06-01 03:01:00,46.0,40.0,-100.00,NNW,330,17.0,24.0,81,-99.99,,,0.00,,2013-06-01 09:01:00,
2013-06-01 03:12:00,44.0,40.0,-100.00,North,350,8.0,12.0,86,-99.99,,,0.00,,2013-06-01 09:12:00,
2013-06-01 03:21:00,44.0,40.0,-100.00,North,350,8.0,12.0,86,-99.99,,,0.00,,2013-06-01 09:21:00,
2013-06-01 03:33:00,44.0,40.0,-100.00,North,350,8.0,12.0,86,-99.99,,,0.00,,2013-06-01 09:33:00,
2013-06-01 03:42:00,44.0,40.0,-100.00,North,350,8.0,12.0,86,-99.99,,,0.00,,2013-06-01 09:42:00,
2013-06-01 03:53:00,44.0,40.0,-100.00,NNW,340,8.0,17.0,85,-99.99,,,0.00,,2013-06-01 09:53:00,
2013-06-01 04:02:00,44.0,40.0,-100.00,NNW,340,8.0,17.0,85,-99.99,,,0.00,,2013-06-01 10:02:00,
2013-06-01 04:12:00,44.0,40.0,-100.00,NNW,340,7.0,12.0,85,-99.99,,,0.00,,2013-06-01 10:12:00,
2013-06-01 04:22:00,44.0,40.0,-100.00,NNW,340,7.0,12.0,85,-99.99,,,0.00,,2013-06-01 10:22:00,
2013-06-01 04:32:00,44.0,40.0,-100.00,NNW,340,7.0,12.0,85,-99.99,,,0.00,,2013-06-01 10:32:00,
2013-06-01 04:42:00,44.0,40.0,-100.00,NNW,340,7.0,12.0,85,-99.99,,,0.00,,2013-06-01 10:42:00,
2013-06-01 04:52:00,45.0,40.0,-100.00,NNW,335,8.0,12.0,81,-99.99,,,0.00,,2013-06-01 10:52:00,
2013-06-01 05:02:00,45.0,40.0,-100.00,NNW,335,8.0,12.0,81,-99.99,,,0.00,,2013-06-01 11:02:00,
2013-06-01 05:11:00,45.0,40.0,-100.00,NNW,340,7.0,9.0,81,-99.99,,,0.00,,2013-06-01 11:11:00,
2013-06-01 05:21:00,45.0,40.0,-100.00,NNW,340,7.0,9.0,81,-99.99,,,0.00,,2013-06-01 11:21:00,
2013-06-01 05:32:00,45.0,40.0,-100.00,NNW,340,7.0,9.0,81,-99.99,,,0.00,,2013-06-01 11:32:00,
2013-06-01 05:42:00,45.0,40.0,-100.00,NNW,340,7.0,9.0,81,-99.99,,,0.00,,2013-06-01 11:42:00,
2013-06-01 05:52:00,45.0,40.0,-100.00,NNW,330,9.0,14.0,82,-99.99,,,0.00,,2013-06-01 11:52:00,
2013-06-01 06:01:00,45.0,40.0,-100.00,NNW,330,9.0,14.0,82,-99.99,,,0.00,,2013-06-01 12:01:00,
2013-06-01 06:11:00,45.0,40.0,-100.00,North,0,7.0,9.0,81,-99.99,,,0.00,,2013-06-01 12:11:00,
2013-06-01 06:21:00,45.0,40.0,-100.00,North,0,7.0,9.0,81,-99.99,,,0.00,,2013-06-01 12:21:00,
2013-06-01 06:32:00,45.0,40.0,-100.00,NNW,330,9.0,14.0,81,-99.99,,,0.00,,2013-06-01 12:32:00,
2013-06-01 06:41:00,45.0,40.0,-100.00,NNW,330,9.0,14.0,81,-99.99,,,0.00,,2013-06-01 12:41:00,
2013-06-01 06:52:00,45.0,40.0,-100.00,NNW,330,9.0,13.0,82,-99.99,,,0.00,,2013-06-01 12:52:00,
2013-06-01 07:01:00,45.0,40.0,-100.00,NNW,330,9.0,13.0,82,-99.99,,,0.00,,2013-06-01 13:01:00,
2013-06-01 07:11:00,46.0,41.0,-100.00,NNW,335,6.0,12.0,81,-99.99,,,0.00,,2013-06-01 13:11:00,
2013-06-01 07:22:00,46.0,41.0,-100.00,NNW,335,6.0,12.0,81,-99.99,,,0.00,,2013-06-01 13:22:00,
2013-06-01 07:32:00,46.0,41.0,-100.00,NNW,335,6.0,12.0,81,-99.99,,,0.00,,2013-06-01 13:32:00,
2013-06-01 07:42:00,46.0,41.0,-100.00,NNW,335,6.0,12.0,81,-99.99,,,0.00,,2013-06-01 13:42:00,
2013-06-01 07:52:00,47.0,41.0,-100.00,NNW,345,6.0,11.0,79,-99.99,,,0.00,,2013-06-01 13:52:00,
2013-06-01 08:02:00,47.0,41.0,-100.00,NNW,345,6.0,11.0,79,-99.99,,,0.00,,2013-06-01 14:02:00,
2013-06-01 08:11:00,49.0,43.0,-100.00,NNW,340,8.0,10.0,80,-99.99,,,0.00,,2013-06-01 14:11:00,
2013-06-01 08:21:00,49.0,43.0,-100.00,NNW,340,8.0,10.0,80,-99.99,,,0.00,,2013-06-01 14:21:00,
2013-06-01 08:32:00,49.0,43.0,-100.00,NNW,340,8.0,10.0,80,-99.99,,,0.00,,2013-06-01 14:32:00,
2013-06-01 08:42:00,49.0,43.0,-100.00,NNW,340,8.0,10.0,80,-99.99,,,0.00,,2013-06-01 14:42:00,
2013-06-01 08:52:00,50.0,43.0,-100.00,North,0,9.0,14.0,75,-99.99,,,0.00,,2013-06-01 14:52:00,
2013-06-01 09:01:00,50.0,43.0,-100.00,North,0,9.0,14.0,75,-99.99,,,0.00,,2013-06-01 15:01:00,
2013-06-01 09:11:00,50.0,42.0,-100.00,NW,325,11.0,16.0,73,-99.99,,,0.00,,2013-06-01 15:11:00,
2013-06-01 09:21:00,50.0,42.0,-100.00,NW,325,11.0,16.0,73,-99.99,,,0.00,,2013-06-01 15:21:00,
2013-06-01 09:33:00,50.0,42.0,-100.00,NW,325,11.0,16.0,73,-99.99,,,0.00,,2013-06-01 15:33:00,
2013-06-01 09:43:00,50.0,42.0,-100.00,NW,325,11.0,16.0,73,-99.99,,,0.00,,2013-06-01 15:43:00,
2013-06-01 09:53:00,51.0,42.0,-100.00,NNW,335,9.0,14.0,72,-99.99,,,0.00,,2013-06-01 15:53:00,
2013-06-01 10:03:00,51.0,42.0,-100.00,NNW,335,9.0,14.0,72,-99.99,,,0.00,,2013-06-01 16:03:00,
2013-06-01 10:12:00,53.0,44.0,-100.00,NW,315,6.0,11.0,70,-99.99,,,0.00,,2013-06-01 16:12:00,
2013-06-01 10:23:00,53.0,44.0,-100.00,NW,315,6.0,11.0,70,-99.99,,,0.00,,2013-06-01 16:23:00,
2013-06-01 10:33:00,53.0,44.0,-100.00,NW,315,6.0,11.0,70,-99.99,,,0.00,,2013-06-01 16:33:00,
2013-06-01 10:42:00,53.0,44.0,-100.00,NW,315,6.0,11.0,70,-99.99,,,0.00,,2013-06-01 16:42:00,
2013-06-01 10:52:00,53.0,43.0,-100.00,NNW,340,12.0,18.0,68,-99.99,,,0.00,,2013-06-01 16:52:00,
2013-06-01 11:02:00,53.0,43.0,-100.00,NNW,340,12.0,18.0,68,-99.99,,,0.00,,2013-06-01 17:02:00,
2013-06-01 11:11:00,54.0,43.0,-100.00,North,0,13.0,15.0,66,-99.99,,,0.00,,2013-06-01 17:11:00,
2013-06-01 11:22:00,54.0,43.0,-100.00,North,0,13.0,15.0,66,-99.99,,,0.00,,2013-06-01 17:22:00,
2013-06-01 11:32:00,54.0,43.0,-100.00,North,0,13.0,15.0,66,-99.99,,,0.00,,2013-06-01 17:32:00,
2013-06-01 11:42:00,54.0,43.0,-100.00,North,0,13.0,15.0,66,-99.99,,,0.00,,2013-06-01 17:42:00,
2013-06-01 11:52:00,55.0,42.0,-100.00,North,350,10.0,14.0,61,-99.99,,,0.00,,2013-06-01 17:52:00,
2013-06-01 12:01:00,55.0,42.0,-100.00,North,350,10.0,14.0,61,-99.99,,,0.00,,2013-06-01 18:01:00,
2013-06-01 12:12:00,56.0,41.0,-100.00,NNE,15,8.0,15.0,57,-99.99,,,0.00,,2013-06-01 18:12:00,
2013-06-01 12:21:00,56.0,41.0,-100.00,NNE,15,8.0,15.0,57,-99.99,,,0.00,,2013-06-01 18:21:00,
2013-06-01 12:32:00,57.0,39.0,-100.00,NNW,335,8.0,14.0,52,-99.99,,,0.00,,2013-06-01 18:32:00,
2013-06-01 12:41:00,57.0,39.0,-100.00,NNW,335,8.0,14.0,52,-99.99,,,0.00,,2013-06-01 18:41:00,
2013-06-01 12:51:00,55.0,38.0,-100.00,NNW,330,9.0,16.0,52,-99.99,,,0.00,,2013-06-01 18:51:00,
2013-06-01 13:01:00,55.0,38.0,-100.00,NNW,330,9.0,16.0,52,-99.99,,,0.00,,2013-06-01 19:01:00,
2013-06-01 13:11:00,56.0,38.0,-100.00,North,355,9.0,14.0,51,-99.99,,,0.00,,2013-06-01 19:11:00,
2013-06-01 13:21:00,56.0,38.0,-100.00,North,355,9.0,14.0,51,-99.99,,,0.00,,2013-06-01 19:21:00,
2013-06-01 13:32:00,56.0,38.0,-100.00,North,355,9.0,14.0,51,-99.99,,,0.00,,2013-06-01 19:32:00,
2013-06-01 13:41:00,56.0,38.0,-100.00,North,355,9.0,14.0,51,-99.99,,,0.00,,2013-06-01 19:41:00,
2013-06-01 13:52:00,57.0,37.0,-100.00,NNE,15,4.0,11.0,46,-99.99,,,0.00,,2013-06-01 19:52:00,
2013-06-01 14:01:00,57.0,37.0,-100.00,NNE,15,4.0,11.0,46,-99.99,,,0.00,,2013-06-01 20:01:00,
2013-06-01 14:11:00,59.0,36.0,-100.00,NE,40,7.0,9.0,42,-99.99,,,0.00,,2013-06-01 20:11:00,
2013-06-01 14:21:00,59.0,36.0,-100.00,NE,40,7.0,9.0,42,-99.99,,,0.00,,2013-06-01 20:21:00,
2013-06-01 14:32:00,59.0,36.0,-100.00,NE,40,7.0,9.0,42,-99.99,,,0.00,,2013-06-01 20:32:00,
2013-06-01 14:41:00,59.0,36.0,-100.00,NE,40,7.0,9.0,42,-99.99,,,0.00,,2013-06-01 20:41:00,
2013-06-01 14:52:00,60.0,36.0,-100.00,North,0,4.0,12.0,41,-99.99,,,0.00,,2013-06-01 20:52:00,
2013-06-01 15:01:00,60.0,36.0,-100.00,North,0,4.0,12.0,41,-99.99,,,0.00,,2013-06-01 21:01:00,
2013-06-01 15:11:00,61.0,37.0,-100.00,NNE,25,7.0,11.0,42,-99.99,,,0.00,,2013-06-01 21:11:00,
2013-06-01 15:21:00,61.0,37.0,-100.00,NNE,25,7.0,11.0,42,-99.99,,,0.00,,2013-06-01 21:21:00,
2013-06-01 15:33:00,61.0,37.0,-100.00,NNE,25,7.0,11.0,42,-99.99,,,0.00,,2013-06-01 21:33:00,
2013-06-01 15:42:00,61.0,37.0,-100.00,NNE,25,7.0,11.0,42,-99.99,,,0.00,,2013-06-01 21:42:00,
2013-06-01 15:53:00,62.0,37.0,-100.00,ENE,70,3.0,12.0,39,-99.99,,,0.00,,2013-06-01 21:53:00,
2013-06-01 16:03:00,62.0,37.0,-100.00,ENE,70,3.0,12.0,39,-99.99,,,0.00,,2013-06-01 22:03:00,
2013-06-01 16:12:00,63.0,36.0,-100.00,ESE,105,6.0,10.0,37,-99.99,,,0.00,,2013-06-01 22:12:00,
2013-06-01 16:23:00,63.0,36.0,-100.00,ESE,105,6.0,10.0,37,-99.99,,,0.00,,2013-06-01 22:23:00,
2013-06-01 16:33:00,63.0,36.0,-100.00,ESE,105,6.0,10.0,37,-99.99,,,0.00,,2013-06-01 22:33:00,
2013-06-01 16:42:00,63.0,36.0,-100.00,ESE,105,6.0,10.0,37,-99.99,,,0.00,,2013-06-01 22:42:00,
2013-06-01 16:53:00,63.0,37.0,-100.00,SE,125,3.0,5.0,38,-99.99,,,0.00,,2013-06-01 22:53:00,
2013-06-01 17:02:00,63.0,37.0,-100.00,SE,125,3.0,5.0,38,-99.99,,,0.00,,2013-06-01 23:02:00,
2013-06-01 17:11:00,64.0,36.0,-100.00,NE,40,4.0,11.0,36,-99.99,,,0.00,,2013-06-01 23:11:00,
2013-06-01 17:21:00,64.0,36.0,-100.00,NE,40,4.0,11.0,36,-99.99,,,0.00,,2013-06-01 23:21:00,
2013-06-01 17:32:00,64.0,36.0,-100.00,NE,40,4.0,11.0,36,-99.99,,,0.00,,2013-06-01 23:32:00,
2013-06-01 17:42:00,64.0,36.0,-100.00,NE,40,4.0,11.0,36,-99.99,,,0.00,,2013-06-01 23:42:00,
2013-06-01 17:52:00,61.0,36.0,-100.00,ESE,115,3.0,7.0,40,-99.99,,,0.00,,2013-06-01 23:52:00,
2013-06-01 18:02:00,61.0,36.0,-100.00,ESE,115,3.0,7.0,40,-99.99,,,0.00,,2013-06-02 00:02:00,
2013-06-01 18:11:00,61.0,36.0,-100.00,South,175,4.0,9.0,39,-99.99,,,0.00,,2013-06-02 00:11:00,
2013-06-01 18:21:00,61.0,36.0,-100.00,South,175,4.0,9.0,39,-99.99,,,0.00,,2013-06-02 00:21:00,
2013-06-01 18:32:00,61.0,36.0,-100.00,South,175,4.0,9.0,39,-99.99,,,0.00,,2013-06-02 00:32:00,
2013-06-01 18:41:00,61.0,36.0,-100.00,South,175,4.0,9.0,39,-99.99,,,0.00,,2013-06-02 00:41:00,
2013-06-01 18:51:00,61.0,39.0,-100.00,SSE,165,9.0,11.0,43,-99.99,,,0.00,,2013-06-02 00:51:00,
2013-06-01 19:01:00,61.0,39.0,-100.00,SSE,165,9.0,11.0,43,-99.99,,,0.00,,2013-06-02 01:01:00,
2013-06-01 19:11:00,61.0,40.0,-100.00,South,175,9.0,12.0,46,-99.99,,,0.00,,2013-06-02 01:11:00,
2013-06-01 19:21:00,61.0,40.0,-100.00,South,175,9.0,12.0,46,-99.99,,,0.00,,2013-06-02 01:21:00,
2013-06-01 19:32:00,61.0,40.0,-100.00,South,175,9.0,12.0,46,-99.99,,,0.00,,2013-06-02 01:32:00,
2013-06-01 19:41:00,61.0,40.0,-100.00,South,175,9.0,12.0,46,-99.99,,,0.00,,2013-06-02 01:41:00,
2013-06-01 19:52:00,59.0,40.0,-100.00,SSE,165,12.0,14.0,49,-99.99,,,0.00,,2013-06-02 01:52:00,
2013-06-01 20:01:00,59.0,40.0,-100.00,SSE,165,12.0,14.0,49,-99.99,,,0.00,,2013-06-02 02:01:00,
2013-06-01 20:12:00,58.0,43.0,-100.00,South,175,6.0,8.0,58,-99.99,,,0.00,,2013-06-02 02:12:00,
2013-06-01 20:21:00,58.0,43.0,-100.00,South,175,6.0,8.0,58,-99.99,,,0.00,,2013-06-02 02:21:00,
2013-06-01 20:32:00,58.0,43.0,-100.00,South,175,6.0,8.0,58,-99.99,,,0.00,,2013-06-02 02:32:00,
2013-06-01 20:41:00,58.0,43.0,-100.00,South,175,6.0,8.0,58,-99.99,,,0.00,,2013-06-02 02:41:00,
2013-06-01 20:51:00,56.0,44.0,-100.00,SSE,155,9.0,10.0,66,-99.99,,,0.00,,2013-06-02 02:51:00,
2013-06-01 21:02:00,56.0,44.0,-100.00,SSE,155,9.0,10.0,66,-99.99,,,0.00,,2013-06-02 03:02:00,
2013-06-01 21:11:00,54.0,43.0,-100.00,SE,135,9.0,10.0,68,-99.99,,,0.00,,2013-06-02 03:11:00,
2013-06-01 21:21:00,54.0,43.0,-100.00,SE,135,9.0,10.0,68,-99.99,,,0.00,,2013-06-02 03:21:00,
2013-06-01 21:33:00,54.0,43.0,-100.00,SE,135,9.0,10.0,68,-99.99,,,0.00,,2013-06-02 03:33:00,
2013-06-01 21:43:00,54.0,43.0,-100.00,SE,135,9.0,10.0,68,-99.99,,,0.00,,2013-06-02 03:43:00,
2013-06-01 21:52:00,53.0,44.0,-100.00,SE,140,8.0,9.0,71,-99.99,,,0.00,,2013-06-02 03:52:00,
2013-06-01 22:02:00,53.0,44.0,-100.00,SE,140,8.0,9.0,71,-99.99,,,0.00,,2013-06-02 04:02:00,
2013-06-01 22:13:00,52.0,43.0,-100.00,SE,140,10.0,10.0,69,-99.99,,,0.00,,2013-06-02 04:13:00,
2013-06-01 22:23:00,52.0,43.0,-100.00,SE,140,10.0,10.0,69,-99.99,,,0.00,,2013-06-02 04:23:00,
2013-06-01 22:33:00,52.0,43.0,-100.00,SE,140,10.0,10.0,69,-99.99,,,0.00,,2013-06-02 04:33:00,
2013-06-01 22:42:00,52.0,43.0,-100.00,SE,140,10.0,10.0,69,-99.99,,,0.00,,2013-06-02 04:42:00,
2013-06-01 22:52:00,52.0,43.0,-100.00,SE,135,9.0,11.0,73,-99.99,,,0.00,,2013-06-02 04:52:00,
2013-06-01 23:02:00,52.0,43.0,-100.00,SE,135,9.0,11.0,73,-99.99,,,0.00,,2013-06-02 05:02:00,
2013-06-01 23:11:00,52.0,43.0,-100.00,SE,140,9.0,10.0,71,-99.99,,,0.00,,2013-06-02 05:11:00,
2013-06-01 23:22:00,52.0,43.0,-100.00,SE,140,9.0,10.0,71,-99.99,,,0.00,,2013-06-02 05:22:00,
2013-06-01 23:32:00,52.0,43.0,-100.00,SE,140,9.0,10.0,71,-99.99,,,0.00,,2013-06-02 05:32:00,
2013-06-01 23:42:00,52.0,43.0,-100.00,SE,140,9.0,10.0,71,-99.99,,,0.00,,2013-06-02 05:42:00,
2013-06-01 23:52:00,50.0,43.0,-100.00,SE,140,11.0,12.0,75,-99.99,,,0.00,,2013-06-02 05:52:00,